This is the latest recevied weather packets stored in our database for station/object WA1TYB-13. If no packets are shown the sender has not sent any weather packets the latest 1 day(s).
| Time | Temp. | Humidity | Pressure | Rain* | Wind** | Luminosity | Snow |
|---|---|---|---|---|---|---|---|
| 1778121339 | 17.78° C | 34% | 1011.5 hPa | 0 mm | - | 1 W/m² | - |
| 1778121038 | 18.33° C | 32% | 1011.3 hPa | 0 mm | - | 3 W/m² | - |
| 1778120734 | 18.89° C | 31% | 1011.5 hPa | 0 mm | - | 5 W/m² | - |
| 1778120125 | 18.89° C | 29% | 1011.4 hPa | 0 mm | - | 11 W/m² | - |
| 1778119520 | 19.44° C | 28% | 1011.5 hPa | 0 mm | - | 22 W/m² | - |
| 1778118915 | 19.44° C | 28% | 1011.6 hPa | 0 mm | - | 29 W/m² | - |
| 1778118612 | 19.44° C | 28% | 1011.4 hPa | 0 mm | - | 32 W/m² | - |
| 1778118308 | 20° C | 27% | 1011.4 hPa | 0 mm | - | 38 W/m² | - |
| 1778118004 | 19.44° C | 28% | 1011.4 hPa | 0 mm | - | 42 W/m² | - |
| 1778117701 | 20° C | 25% | 1011.3 hPa | 0 mm | - | 48 W/m² | - |
| 1778117398 | 20° C | 27% | 1011.5 hPa | 0 mm | - | 52 W/m² | - |
| 1778117095 | 20° C | 27% | 1011.2 hPa | 0 mm | - | 62 W/m² | - |
| 1778116791 | 20.56° C | 26% | 1011.3 hPa | 0 mm | - | 75 W/m² | - |
| 1778116488 | 20.56° C | 26% | 1011.1 hPa | 0 mm | - | 95 W/m² | - |
| 1778116184 | 20.56° C | 26% | 1011.3 hPa | 0 mm | - | 108 W/m² | - |
| 1778115879 | 20.56° C | 26% | 1011.2 hPa | 0 mm | - | 132 W/m² | - |
| 1778115576 | 20.56° C | 26% | 1011.4 hPa | 0 mm | - | 132 W/m² | - |
| 1778115273 | 20.56° C | 25% | 1011.3 hPa | 0 mm | - | 104 W/m² | - |
| 1778114970 | 20.56° C | 27% | 1011.3 hPa | 0 mm | - | 92 W/m² | - |
| 1778114666 | 20.56° C | 26% | 1011.1 hPa | 0 mm | - | 93 W/m² | - |
| 1778114364 | 20.56° C | 24% | 1011.1 hPa | 0 mm | - | 95 W/m² | - |
| 1778114059 | 20.56° C | 27% | 1011.2 hPa | 0 mm | - | 97 W/m² | - |
| 1778113754 | 20.56° C | 25% | 1011.3 hPa | 0 mm | - | 109 W/m² | - |
| 1778113451 | 20.56° C | 25% | 1011.3 hPa | 0 mm | - | 81 W/m² | - |
| 1778113148 | 21.11° C | 24% | 1011.1 hPa | 0 mm | - | 94 W/m² | - |
* Rain latest hour (hover to see other rain measurements)
** Current wind speed in m/s (hover to see current wind gust speed)